Regional Weather Roundup
Issued by NWS Cleveland, OH

Home | Current Version | Previous Version | Text Only | Print | Product List | Glossary Off
Versions: 1 2 3 4 5 6 7 8 9 10 11 12 13 14 15 16 17 18 19 20 21 22 23 24 25 26 27 28 29 30 31 32 33 34 35 36 37 38 39 40 41 42 43 44 45 46 47 48 49 50

000
ASUS41 KCLE 311410
RWRCLE
OHIO REGIONAL WEATHER ROUNDUP
NATIONAL WEATHER SERVICE WILMINGTON, OH
1000 AM EDT FRI JUL 31 2015

NOTE: "FAIR" INDICATES FEW OR NO CLOUDS BELOW 12,000 FEET WITH NO
SIGNIFICANT WEATHER AND/OR OBSTRUCTIONS TO VISIBILITY.

OHZ001>008-015>018-024>027-034-035-043-044-311500-
   NORTHWEST OHIO

CITY           SKY/WX    TMP DP  RH WIND       PRES   REMARKS
DEFIANCE       SUNNY     78  62  57 VRB6      30.01S
FINDLAY        SUNNY     75  64  68 W10       30.01R
TOLEDO EXPRESS SUNNY     75  62  64 W9        29.98S
TOLEDO EXEC    SUNNY     77  60  55 W7        29.99R
LIMA           SUNNY     75  63  66 W8        30.03S
$$

OHZ009>014-019>023-028>033-038-089-311500-
   NORTHEAST OHIO

CITY           SKY/WX    TMP DP  RH WIND       PRES   REMARKS
CLE-HOPKINS    SUNNY     77  60  55 W9        29.99F
CLE-LAKEFRONT  SUNNY     78  62  57 SW10      29.95F
CUY CO. ARPT   SUNNY     77  63  61 W12       29.98S
LORAIN-ELYRIA  SUNNY     75  61  61 W6        29.98F
ASHTABULA      SUNNY     77  66  68 W8        29.97S
AKRON-CANTON   SUNNY     76  59  55 W9G23     30.00F
WOOSTER        SUNNY     76  62  62 W9        30.01F
MANSFIELD      SUNNY     76  61  59 SW8       30.02S
YOUNGSTOWN     SUNNY     76  60  57 W8        29.99S
$$

OHZ042-051>053-060>062-070>072-077>081-311500-
  SOUTHWEST OHIO

CITY           SKY/WX    TMP DP  RH WIND       PRES   REMARKS
CINC-COVINGTON NOT AVBL
CINC-LUNKEN    SUNNY     76  67  73 VRB5      30.06F
HAMILTON       SUNNY     77  66  68 W6        30.07S
DAYTON         SUNNY     75  66  73 NW8       30.06S
WRIGHT-PAT AFB SUNNY     76  65  70 W5        30.04F
DAYTON GENERAL SUNNY     75  63  66 VRB3      30.06S
WILMINGTON     SUNNY     76  63  64 W7        30.06S
$$

OHZ036-037-039>041-045>050-054>059-063>069-073>076-082>088-311500-
  CENTRAL AND SOUTHEAST OHIO

CITY           SKY/WX    TMP DP  RH WIND       PRES   REMARKS
COLUMBUS       SUNNY     75  62  64 SW5       30.03S
OSU AIRPORT    SUNNY     75  65  70 W7        30.03S
BOLTON FIELD   SUNNY     75  66  73 W7        30.04S
RICKENBACK AFB SUNNY     72  63  73 SW3       30.03S
NEWARK         SUNNY     77  63  61 W5        30.03S
MARION         SUNNY     75  62  64 W7        30.02S
LANCASTER      SUNNY     75  63  66 VRB5      30.04F
ZANESVILLE     SUNNY     74  61  63 W5        30.03F
NEW PHILLY     SUNNY     74  63  68 SW3       30.02S
$$


USA.gov is the U.S. government's official web portal to all federal, state and local government web resources and services.